Regional Weather Roundup
Issued by NWS

Home | Current Version | Previous Version | Graphics & Text | Print | Product List | Glossary On
Versions: 1 2 3 4 5 6 7 8 9 10 11 12 13 14 15 16 17 18 19 20 21 22 23 24 25 26 27 28 29 30 31 32 33 34 35 36 37 38 39 40 41 42 43 44 45 46 47 48 49 50
000
ASUS44 KMEG 180410
RWRTN
TENNESSEE HOURLY STATE WEATHER ROUNDUP
NATIONAL WEATHER SERVICE MEMPHIS TN
1100 PM CDT THU AUG 17 2017

TNZ002-004-019-021-049-052-054-088>092-180500-
WEST TENNESSEE

CITY           SKY/WX    TMP DP  RH WIND       PRES   REMARKS
MEMPHIS INTL   PTCLDY    77  74  90 SW6       29.97R
NWS MEMPHIS      N/A     75 N/A N/A MISG        N/A
JACKSON        MOCLDY    75  75 100 SW7       29.96S
DYERSBURG      CLEAR     76  75  97 SW5       29.95S
SOMERVILLE     CLEAR     75  75 100 SW3       29.96S
COVINGTON      CLEAR     75  73  94 SW5       29.96R
UNION CITY     CLEAR     73  72  94 S3        29.93S
PARIS          CLOUDY    75  75 100 SW7       29.93F FOG
HUNTINGDON     MOCLDY    75  75 100 SW3       29.94S
LEXINGTON      CLOUDY    73  73 100 CALM      29.95S
SELMER         PTCLDY    73  73 100 SW6       29.97R
SAVANNAH       CLOUDY    75  73  94 SW5       29.96R
$$

TNZ008-025-027-028-033-062-065-066-180500-
NORTH MIDDLE TENNESSEE

CITY           SKY/WX    TMP DP  RH WIND       PRES   REMARKS
NASHVILLE      CLOUDY    78  75  90 W3        29.95R
PORTLAND       MOCLDY    77  75  94 SW9       29.93F
CLARKSVILLE    MOCLDY    76  74  93 SW5       29.93S
SMYRNA         CLOUDY    77  76  96 CALM      29.95S
COOKEVILLE     PTCLDY    77  72  83 S6        29.96F
GALLATIN       CLOUDY    79  75  89 CALM      29.96S
CROSSVILLE     CLEAR     72  69  90 CALM      30.03F
$$

TNZ061-075-076-078-094-096-097-180500-
SOUTH MIDDLE TENNESSEE

CITY           SKY/WX    TMP DP  RH WIND       PRES   REMARKS
FAYETTEVILLE   MOCLDY    81  73  78 SW12      29.99R
TULLAHOMA        N/A     77  72  83 S7        29.99S
WINCHESTER     PTCLDY    77  72  83 S6        29.99S
MCMINNVILLE    CLEAR     73  73 100 CALM      29.97F
COLUMBIA       PTCLDY    77  77 100 SW5       29.94R
SHELBYVILLE    CLOUDY    75  73  94 SW29      29.97R FOG
$$

TNZ017-018-042-046-047-180500-
NORTHEAST TENNESSEE

CITY           SKY/WX    TMP DP  RH WIND       PRES   REMARKS
TRI CITIES     CLEAR     72  70  93 CALM      30.02F
ELIZABETHTON   PTCLDY    72  70  94 CALM      30.04S
$$

TNZ012-013-036-069-073-074-180500-
CENTRAL EAST TENNESSEE

CITY           SKY/WX    TMP DP  RH WIND       PRES   REMARKS
KNOXVILLE      PTCLDY    77  71  82 S7        29.98F
OAK RIDGE      CLEAR     77  72  84 CALM      29.99F
DOWNTOWN KNOXV CLEAR     75  73  94 CALM      29.97F
GATLINBURG     CLEAR     73  70  88 CALM      29.99F
MORRISTOWN     PTCLDY    75  73  94 CALM      30.00F
JACKSBORO      CLEAR     73  73 100 CALM      30.02F
$$

TNZ083-085-099-180500-
SOUTHEAST TENNESSEE

CITY           SKY/WX    TMP DP  RH WIND       PRES   REMARKS
CHATTANOOGA    PTCLDY    80  72  76 S5        29.99F
DAYTON         CLOUDY    77  75  94 CALM      29.96F
$$

SKY/WX REPORTED AS FAIR MEANS FEW OR NO CLOUDS BELOW
12 THOUSAND FEET.





USA.gov is the U.S. government's official web portal to all federal, state and local government web resources and services.